Location: Antioch Baptist Church
(32.7160°N, 96.7483°W)
Time: 19:05:17
(UTC+00:00)

BlueWalker 3 - Pass Details

Date: 05 December 2023
Orbit: 486 x 500 km, 53.2° (Epoch: 20 February)

Event Time Altitude Azimuth Distance (km) Brightness Sun altitude
Exits shadow 12:21:42 15° 308° (NW) 1,416 3.6 -11.0°
Maximum altitude 12:24:46 63° 230° (SW) 553 2.0 -10.4°
Drops below altitude 10° 12:28:31 10° 148° (SSE) 1,676 5.4 -9.7°
Sets 12:30:41 0° 145° (SE) 2,550 6.6 -9.3°
